Weather History for KLFT - October, 2011

Change the Weather History Date:

Monday, October 10, 2011

  Actual Average Record
Temperature  
Mean Temperature 74 °F 72 °F  
Max Temperature 83 °F 83 °F 93 °F (1931)
Min Temperature 64 °F 62 °F 36 °F (1917)
Degree Days  
Heating Degree Days 0 1  
Month to date heating degree days 2 1  
Since 1 July heating degree days 2 2  
Cooling Degree Days 9 8  
Month to date cooling degree days 55 88  
Year to date cooling degree days 3149 2776  
Growing Degree Days 22 (Base 50)    
Moisture  
Dew Point 64 °F    
Average Humidity 74    
Maximum Humidity 93    
Minimum Humidity 54    
Precipitation  
Precipitation 0.00 in 0.15 in 2.29 in (2003)
Month to date precipitation 0.00 1.48  
Year to date precipitation 30.43 46.82  
Snow  
Snow 0.00 in 0.00 in 0.00 in ()
Month to date snowfall 0.0 0.0  
Since 1 July snowfall 0.0 0.0  
Since 1 September snowfall 0.0 0.0  
Snow Depth 0.00 in    
Sea Level Pressure  
Sea Level Pressure 29.95 in    
Wind  
Wind Speed 5 mph (NE)    
Max Wind Speed 14 mph    
Max Gust Speed 18 mph    
Visibility 10 miles    
Events      
T = Trace of Precipitation, MM = Missing Value Source: NWS Daily Summary

Daily Weather History Graph

Daily Weather History Graph

Search for Another Location

Airport or City:

Trip Planner

Search our weather history database for the weather conditions in past years. The results will help you decide how hot, cold, wet, or windy it might be!

Date:

Astronomy

Oct. 10, 2011 Rise Set
Actual Time 7:06 AM CDT 6:42 PM CDT
Civil Twilight 6:42 AM CDT 7:06 PM CDT
Nautical Twilight 6:14 AM CDT 7:34 PM CDT
Astronomical Twilight 5:46 AM CDT 8:02 PM CDT
Moon 5:46 PM CDT (10/10) 5:50 AM CDT (10/10)
Length of Visible Light 12h 24m
Length of Day
11h 36m
Waxing Gibbous, 98% of the Moon is Illuminated
Oct 10
Waxing Gibbous
Oct 11
Full
Oct 19
Last Quarter
Oct 26
New
Nov 2
First Quarter

Hourly Weather History & Observations

Time (CDT) Temp. Heat Index Dew Point Humidity Pressure Visibility Wind Dir Wind Speed Gust Speed Precip Events Conditions
12:53 AM 68.0 °F - 64.9 °F 90% 29.99 in 10.0 mi Calm Calm - N/A   Clear
1:53 AM 66.0 °F - 64.0 °F 93% 29.98 in 10.0 mi NE 3.5 mph - N/A   Clear
2:53 AM 66.9 °F - 64.0 °F 90% 29.97 in 10.0 mi ENE 4.6 mph - N/A   Clear
3:53 AM 66.9 °F - 64.0 °F 90% 29.96 in 10.0 mi ENE 5.8 mph - N/A   Clear
4:53 AM 66.0 °F - 63.0 °F 90% 29.96 in 10.0 mi NE 5.8 mph - N/A   Clear
5:53 AM 66.0 °F - 63.0 °F 90% 29.98 in 10.0 mi ENE 3.5 mph - N/A   Clear
6:53 AM 64.0 °F - 62.1 °F 93% 29.98 in 10.0 mi NE 3.5 mph - N/A   Clear
7:53 AM 64.4 °F - 62.6 °F 94% 29.98 in 10.0 mi NE 5.8 mph - N/A   Clear
8:53 AM 68.0 °F - 63.0 °F 84% 30.00 in 10.0 mi Variable 4.6 mph - N/A   Clear
9:53 AM 72.0 °F - 63.0 °F 73% 30.01 in 10.0 mi ENE 6.9 mph - N/A   Clear
10:53 AM 73.0 °F - 63.0 °F 71% 30.00 in 10.0 mi NE 4.6 mph - N/A   Clear
11:53 AM 75.9 °F - 64.0 °F 67% 29.99 in 10.0 mi ENE 5.8 mph - N/A   Clear
12:53 PM 78.8 °F - 64.4 °F 61% 29.97 in 10.0 mi North 8.1 mph - N/A   Clear
1:53 PM 80.1 °F 81.7 °F 64.0 °F 58% 29.94 in 10.0 mi NE 11.5 mph - N/A   Partly Cloudy
2:53 PM 80.1 °F 81.7 °F 64.0 °F 58% 29.92 in 10.0 mi NNE 11.5 mph - N/A   Clear
3:53 PM 81.0 °F 82.2 °F 63.0 °F 54% 29.91 in 10.0 mi NE 10.4 mph - N/A   Partly Cloudy
4:53 PM 81.0 °F 82.5 °F 64.0 °F 56% 29.90 in 10.0 mi NE 6.9 mph - N/A   Partly Cloudy
5:53 PM 80.1 °F 81.9 °F 64.9 °F 60% 29.90 in 10.0 mi NE 4.6 mph - N/A   Clear
6:53 PM 77.0 °F - 64.4 °F 65% 29.90 in 10.0 mi North 5.8 mph - N/A   Clear
7:53 PM 73.4 °F - 64.4 °F 73% 29.91 in 10.0 mi NNE 3.5 mph - N/A   Clear
8:53 PM 72.0 °F - 66.0 °F 81% 29.91 in 10.0 mi Calm Calm - N/A   Clear
9:53 PM 71.1 °F - 64.9 °F 81% 29.91 in 10.0 mi NNE 3.5 mph - N/A   Clear
10:53 PM 70.0 °F - 64.0 °F 81% 29.91 in 10.0 mi NE 3.5 mph - N/A   Clear
11:53 PM 68.0 °F - 64.0 °F 87% 29.90 in 10.0 mi NE 3.5 mph - N/A   Clear